Location: Unspecified
(47.9110°N, 14.3980°E)
Time: 17:44:52
(UTC+00:00)

Cosmos 2237 - Pass Details

Date: 06 August 2020
Orbit: 847 x 855 km, 70.8° (Epoch: 24 September)

Event Time Altitude Azimuth Distance (km) Brightness Sun altitude
Rises 22:15:51 0° 332° (NNW) 3,434 8.6 -24.7°
Reaches altitude 10° 22:18:20 10° 333° (NNW) 2,493 7.6 -24.8°
Maximum altitude 22:24:05 83° 62° (ENE) 866 4.1 -25.0°
Enters shadow 22:25:01 63° 137° (SE) 947 4.1 -25.0°
